TIME,DELAY(SENSOR),PRES,OXYGEN,RAWTEMP,T(OPTODE),TCPHASE,FLUOR,BETA(BETA700),BETA(BETA412),BETA(BETA440),CDOM,C(CSC),ED(ED411.90),ED(ED443.80),ED(ED489.40),ED(ED554.70),LU(LU412.20),LU(LU443.80),LU(LU489.40),LU(LU555.00),COMP,TILTX,TILTY,CHECK
1351116116,5806,865.0399780273438000,163.9967041015625000,418.5978088378906000,10.0350599288940430,38.9712181091308600,52,103,62,56,59,13449,2146961828,2147518482,2147286857,2147504960,2147091355,2146927698,2147706596,2147121298,2328,-1,9,38807
1351119712,5806,982.8699951171875000,196.6777038574218800,497.4638977050781000,7.6081509590148930,38.0611305236816400,52,103,62,56,59,13446,2146957696,2147516498,2147292891,2147517696,2147088978,2146925632,2147721581,2147117888,1410,-1,9,21280
1351123312,5806,1005.7800292968750000,210.4075012207031200,512.1473999023438000,7.1521320343017580,37.4857788085937500,52,101,62,56,58,13441,2146959954,2147522861,2147295817,2147519442,2147090185,2146925586,2147725348,2147118555,3212,-1,9,20468
1351126912,5805,1011.7199707031250000,211.8087005615234400,513.2734985351562000,7.1170988082885740,37.4234580993652340,53,102,63,57,59,13441,2146959744,2147516864,2147297673,2147520365,2147091282,2146919725,2147726473,2147123355,3237,-1,9,25738
1351130512,5805,1016.6300048828125000,214.9071044921875000,516.1762084960938000,7.0267519950866700,37.2960586547851560,52,102,62,55,58,13437,2146963145,2147518235,2147294756,2147521654,2147091721,2146920941,2147724745,2147118482,361,-1,8,51727
1351134112,5809,1020.1599731445312000,214.2765960693359400,515.7899780273438000,7.0387740135192870,37.3256492614746100,52,102,62,57,59,13434,2146964260,2147516297,2147297819,2147522057,2147092032,2146922148,2147724717,2147118820,22,-1,8,3097
1351137712,5808,1020.8900146484375000,216.5003967285156200,518.5366821289062000,6.9532380104064940,37.2461585998535160,52,104,63,57,58,13429,2146961197,2147519277,2147295652,2147519698,2147090148,2146919542,2147726482,2147118610,3297,0,8,52554
1351141312,5806,1018.3699951171875000,217.5007019042968800,519.5795288085938000,6.9207510948181150,37.2084388732910160,52,104,62,56,58,13424,2146961938,2147519433,2147296283,2147520969,2147091236,2146920685,2147724946,2147120036,3169,-1,9,21792
1351144912,5809,1019.9199829101562000,218.4091033935547000,520.1218872070312000,6.9038457870483400,37.1661796569824200,52,102,62,56,59,13426,2146961088,2147517979,2147296877,2147523254,2147090916,2146919341,2147724699,2147121746,92,-1,8,42892
1351148512,5805,1022.2700195312500000,219.1101989746093800,520.6981811523438000,6.8858847618103030,37.1368484497070300,52,104,62,56,59,13427,2146961142,2147518272,2147295360,2147523318,2147089179,2146918427,2147722633,2147121289,3347,-1,9,33464
1351152112,5804,1020.3400268554688000,219.2673034667968800,520.8742065429688000,6.8804020881652830,37.1316719055175800,53,124,62,56,58,13427,2146961545,2147515474,2147296000,2147525549,2147090304,2146916525,2147725312,2147118564,3492,-1,9,52599
1351155712,5805,1024.1800537109375000,218.9051971435547000,520.8211059570312000,6.8820571899414060,37.1509590148925800,52,102,62,57,59,13424,2146963062,2147517568,2147297298,2147523172,2147092425,2146920758,2147723894,2147120594,3190,-1,9,37254
1351159312,5805,1030.2700195312500000,218.6302947998047000,520.1315917968750000,6.9035449028015140,37.1539382934570300,52,102,62,55,58,13423,2146960347,2147518573,2147294966,2147522651,2147091584,2146921362,2147725888,2147121920,3496,-1,9,39407
1351162912,5808,1028.6199951171875000,217.8609924316406200,519.9290771484375000,6.9098567962646480,37.1938209533691400,52,100,62,56,58,13420,2146960877,2147514550,2147295314,2147522057,2147089682,2146923200,2147723419,2147119305,15,0,8,14235
1351166512,5808,1027.5100097656250000,217.1871948242187500,520.6118774414062000,6.8885769844055180,37.2439918518066400,52,100,64,57,58,13419,2146961627,2147517997,2147296091,2147527149,2147089517,2146922770,2147718976,2147125476,149,-1,8,44748
1351170112,5805,1029.2500000000000000,216.7532043457031200,520.5255737304688000,6.8912677764892580,37.2674293518066400,52,105,62,57,58,13416,2146961709,2147518793,2147298267,2147524809,2147091584,2146918546,2147720393,2147121618,204,0,9,27328
1351173712,5808,1024.2800292968750000,217.5780944824218800,520.1472778320312000,6.9030570983886720,37.2140884399414060,52,104,62,55,58,13416,2146962642,2147517147,2147299108,2147524708,2147088118,2146928384,2147723501,2147118016,503,-1,9,20444
1351177312,5805,1025.5300292968750000,219.9114990234375000,521.2517700195312000,6.8686308860778810,37.1023597717285160,53,102,62,55,58,13422,2146960027,2147520164,2147298166,2147527579,2147090669,2146923766,2147723373,2147119204,3100,0,9,53482
1351180912,5807,1029.5400390625000000,219.3769989013672000,520.8850708007812000,6.8800601959228520,37.1258201599121100,52,103,63,55,58,13413,2146958774,2147518555,2147297892,2147523300,2147089590,2146922395,2147724699,2147119552,3060,-1,9,27665
1351184512,5804,1026.5600585937500000,219.4618988037109400,521.9063720703125000,6.8482251167297360,37.1385993957519500,52,117,62,56,58,13416,2146959872,2147518217,2147295917,2147522212,2147091218,2146923090,2147722176,2147123136,3177,-1,9,40354
1351188112,5807,1027.8100585937500000,220.2583007812500000,522.6193847656250000,6.8259940147399900,37.1062889099121100,52,103,62,56,59,13403,2146960384,2147516004,2147294985,2147522313,2147092379,2146920978,2147723227,2147118829,499,0,8,40109
1351191712,5806,1030.7099609375000000,220.5428009033203000,521.8150024414062000,6.8510751724243160,37.0766105651855500,53,111,61,56,57,13406,2146963318,2147515291,2147295981,2147521334,2147091812,2146926930,2147722907,2147121865,3193,-1,9,61181
1351195312,5808,1027.9799804687500000,221.0066986083984400,523.6765136718750000,6.7930297851562500,37.0833892822265600,52,103,61,57,58,13404,2146958756,2147516324,2147294473,2147525184,2147089837,2146920566,2147723648,2147119424,667,-1,8,5802
1351198912,5806,1030.7800292968750000,220.0894012451172000,521.6265869140625000,6.8569469451904300,37.0985603332519500,53,102,63,56,58,13405,2146960274,2147516571,2147292699,2147526665,2147093046,2146922093,2147725302,2147123355,282,-1,9,50014
1351202512,5804,1028.2299804687500000,219.1990051269531200,521.8234863281250000,6.8508081436157230,37.1521492004394500,52,106,60,56,58,13405,2146959424,2147515876,2147295561,2147521764,2147093083,2146921846,2147723437,2147118857,3132,-1,9,54047
1351206112,5807,1034.3499755859375000,219.5314941406250000,521.1868286132812000,6.8706569671630860,37.1220283508300800,52,103,62,56,57,13401,2146961389,2147520758,2147299483,2147520923,2147092608,2146922176,2147726189,2147119744,428,-1,8,10621
1351209712,5805,1029.5200195312500000,219.3724975585937500,521.6885986328125000,6.8550162315368650,37.1401214599609400,53,102,63,56,58,13404,2146962258,2147515474,2147296685,2147524224,2147092534,2146918217,2147719643,2147118628,3135,-1,8,14797
1351213312,5807,1030.1999511718750000,217.6896972656250000,522.7877197265625000,6.8207459449768070,37.2546882629394500,52,104,63,55,57,13400,2146956736,2147516105,2147294016,2147524013,2147094592,2146916004,2147724745,2147118701,241,-1,8,28076
1351216912,5806,1030.2099609375000000,219.8518981933593800,523.1251831054688000,6.8102221488952640,37.1388206481933600,52,102,63,57,58,13390,2146958619,2147518445,2147295899,2147523794,2147091474,2146925138,2147725723,2147121563,3235,0,9,15880
1351220512,5805,1028.1600341796875000,219.4963073730468800,523.5123901367188000,6.7981472015380860,37.1651000976562500,53,110,62,56,58,13394,2146961828,2147518811,2147297014,2147521627,2147092050,2146921883,2147730386,2147120210,3375,-1,8,53345
1351224112,5804,1032.7900390625000000,220.1925964355468800,524.5817260742188000,6.7647929191589355,37.1452293395996100,52,106,62,56,58,13398,2146964123,2147517083,2147298294,2147521856,2147092388,2146920475,2147723474,2147117814,177,0,8,23611
1351227712,5806,1027.8199462890625000,220.4566955566406200,525.1198730468750000,6.7480030059814450,37.1399993896484400,53,107,62,56,58,13383,2146963026,2147516589,2147297316,2147522294,2147094994,2146924544,2147723446,2147122075,3372,0,9,18527
1351231312,5807,1029.1700439453125000,220.7295989990234400,525.6809082031250000,6.7304987907409670,37.1345787048339840,54,102,63,56,58,13395,2146963520,2147517440,2147295597,2147523072,2147094409,2146927277,2147721929,2147118546,494,0,8,26803
1351234912,5805,1030.5400390625000000,222.7810058593750000,525.7791748046875000,6.7274332046508790,37.0228004455566400,52,103,65,56,57,13388,2146963392,2147517458,2147294619,2147523830,2147094217,2146924315,2147725275,2147120512,2579,-1,9,56657
1351238512,5805,1033.9899902343750000,221.8950958251953000,523.7811279296875000,6.7897648811340330,37.0359191894531250,53,105,62,56,58,13393,2146963172,2147517686,2147300452,2147526692,2147090980,2146922806,2147726125,2147118921,2932,-1,8,18651
1351242112,5806,1033.9799804687500000,220.6210021972656200,523.1312866210938000,6.8100328445434570,37.0951614379882800,53,223,62,55,58,13386,2146960512,2147520466,2147297453,2147526107,2147091044,2146923200,2147728649,2147121051,576,-1,8,2422
1351245712,5807,1026.8499755859375000,217.1510925292968800,519.2077026367188000,6.9323339462280270,37.2212409973144500,54,104,61,55,59,13388,2146960758,2147518016,2147294409,2147524452,2147088137,2146925129,2147725988,2147121380,130,-1,9,11428
1351249312,5805,1029.3599853515625000,216.4329986572265600,520.0078125000000000,6.9074048995971680,37.2760391235351560,53,102,61,57,58,13387,2146959844,2147519661,2147294912,2147521654,2147093156,2146917851,2147720649,2147118902,3558,-1,8,7468
1351252912,5804,1027.6400146484375000,217.1853027343750000,519.3895263671875000,6.9266691207885740,37.2221984863281250,53,102,62,55,58,13382,2146961590,2147518226,2147296905,2147522889,2147090916,2146918710,2147718418,2147119332,2509,-1,9,8620
1351256512,5805,1034.6500244140625000,216.8582000732422000,518.5922851562500000,6.9515061378479000,37.2274894714355500,52,101,62,56,59,13384,2146957979,2147519588,2147294875,2147521828,2147091044,2146926829,2147721572,2147120539,3558,-1,9,45616
1351259156,5807,1033.7199707031250000,215.6345062255859400,518.0396728515625000,6.9687190055847170,37.2868118286132800,52,104,62,56,58,13369,2146962349,2147518107,2147294162,2147523090,2147091565,2146923062,2147721627,2147122057,3118,-1,9,26087
